Flag Weather past 2 weeks in Post Falls, Idaho, U.S.A.

Now
55 °F

Overcast.


Feels Like: 51 °F
Forecast: 43 / 52 °F
Wind: 17 mph from Southwest

Location: Coeur d'Alene Weather Reporting System

Current Time: Nov 27, 2014 at 1:06:04 PM

Latest Report: Nov 27, 2014 at 12:35 PM


Visibility: 10 mi

Pressure: 29.82 "Hg

Humidity: 63%

Dew point: 43 °F

Location of Post FallsLocation

Historic Weather in Post Falls — Graph

°F

Post Falls temperature yesterday

Maximum temperature yesterday: 45 °F (at 8:35 PM)
Minimum temperature yesterday: 34 °F (at 12:15 AM)
Average temperature yesterday: 37 °F

Past Weeks' High & Low Weather Summary

 TemperatureHumidityPressure
High54 °F (Nov 27, 10:35 AM)100% (Nov 24, 8:35 PM)30.61 "Hg (Nov 24, 8:35 PM)
Low10 °F (Nov 15, 5:15 AM)29% (Nov 14, 2:55 PM)29.36 "Hg (Nov 21, 11:35 PM)
Average30 °F73%30.14 "Hg
* Reported Nov 12 11:15 AM — Nov 27 11:55 AM, Post Falls, Weather by CustomWeather, © 2014

Note: Actual official high and low records may vary slightly from our data, if they occured in-between our weather recording intervals... More about our weather records

Advertising

Post Falls weather history for previous 24 hours

 ConditionsComfort  
Time TempWeatherWind HumidityBarometerVisibility
11:55 AM
Nov 27
54 °FOvercast.12 mph67%29.85 "Hg10 mi
11:35 AM54 °FMostly cloudy.16 mph67%29.85 "Hg10 mi
11:15 AM54 °FOvercast.17 mph63%29.85 "Hg10 mi
10:55 AM54 °FOvercast.13 mph63%29.87 "Hg10 mi
10:35 AM54 °FOvercast.8 mph58%29.87 "Hg10 mi
10:15 AM52 °FOvercast.5 mph67%29.88 "Hg10 mi
9:55 AM52 °FMostly cloudy.3 mph62%29.89 "Hg10 mi
9:35 AM52 °FMostly cloudy.3 mph62%29.88 "Hg10 mi
9:15 AM48 °FOvercast.6 mph76%29.88 "Hg10 mi
8:55 AM46 °FOvercast.No wind76%29.88 "Hg10 mi
8:35 AM46 °FOvercast.3 mph76%29.88 "Hg10 mi
8:15 AM48 °FOvercast.No wind71%29.88 "Hg10 mi
7:55 AM48 °FOvercast.6 mph71%29.88 "Hg10 mi
7:35 AM50 °FOvercast.6 mph62%29.88 "Hg10 mi
7:15 AM50 °FOvercast.9 mph67%29.87 "Hg10 mi
6:55 AM48 °FOvercast.7 mph71%29.88 "Hg10 mi
6:35 AM52 °FOvercast.9 mph62%29.87 "Hg10 mi
6:15 AM48 °FOvercast.9 mph71%29.87 "Hg10 mi
5:55 AM50 °FOvercast.9 mph67%29.87 "Hg10 mi
5:35 AM50 °FOvercast.9 mph67%29.87 "Hg10 mi
5:15 AM48 °FOvercast.12 mph71%29.87 "Hg10 mi
4:55 AM50 °FOvercast.14 mph67%29.87 "Hg10 mi
4:35 AM48 °FOvercast.12 mph71%29.87 "Hg10 mi
4:15 AM48 °FOvercast.12 mph71%29.87 "Hg10 mi
3:55 AM48 °FOvercast.12 mph71%29.88 "Hg10 mi
3:35 AM46 °FMostly cloudy.13 mph76%29.89 "Hg10 mi
3:15 AM46 °FOvercast.9 mph76%29.89 "Hg10 mi
2:55 AM46 °FOvercast.13 mph76%29.90 "Hg10 mi
2:35 AM46 °FOvercast.16 mph76%29.90 "Hg10 mi
2:15 AM46 °FMostly cloudy.13 mph76%29.91 "Hg10 mi
1:55 AM46 °FOvercast.14 mph76%29.91 "Hg10 mi
1:35 AM46 °FOvercast.16 mph76%29.91 "Hg10 mi
1:15 AM46 °FOvercast.14 mph82%29.92 "Hg10 mi
12:55 AM45 °FMostly cloudy.15 mph87%29.93 "Hg10 mi
12:35 AM45 °FMostly cloudy.14 mph87%29.92 "Hg10 mi
12:15 AM45 °FOvercast.13 mph87%29.93 "Hg10 mi
11:55 PM
Nov 26
45 °FMostly cloudy.13 mph87%29.94 "Hg10 mi
11:35 PM45 °FOvercast.8 mph87%29.95 "Hg10 mi
11:15 PM45 °FMostly cloudy.No wind93%29.96 "Hg10 mi
10:55 PM45 °FOvercast.9 mph87%29.96 "Hg10 mi
10:35 PM45 °FMostly cloudy.9 mph87%29.97 "Hg10 mi
10:15 PM45 °FPassing clouds.8 mph87%29.97 "Hg10 mi
9:55 PM45 °FOvercast.9 mph93%29.98 "Hg10 mi
9:35 PM45 °FOvercast.10 mph93%29.98 "Hg10 mi
9:15 PM45 °FMostly cloudy.10 mph93%30.00 "Hg10 mi
8:55 PM45 °FMostly cloudy.8 mph93%30.01 "Hg10 mi
8:35 PM45 °FPassing clouds.8 mph93%30.01 "Hg10 mi
8:15 PM39 °FPassing clouds.8 mph87%30.00 "Hg5 mi
7:55 PM37 °FPartly cloudy.3 mph93%30.02 "Hg3 mi
7:35 PM37 °FOvercast.No wind93%30.03 "Hg3 mi
6:55 PM37 °FMostly cloudy.3 mph100%30.04 "Hg2 mi
6:35 PM37 °FOvercast.No wind100%30.04 "Hg3 mi
6:15 PM37 °FOvercast.No wind100%30.05 "Hg3 mi
5:55 PM37 °FMostly cloudy.No wind100%30.05 "Hg3 mi
5:35 PM39 °FOvercast.3 mph93%30.06 "Hg4 mi
5:15 PM39 °FOvercast.No wind93%30.06 "Hg3 mi
4:55 PM39 °FMostly cloudy.No wind93%30.06 "Hg5 mi
4:35 PM39 °FOvercast.No wind93%30.08 "Hg5 mi
3:55 PM39 °FOvercast.No wind93%30.09 "Hg7 mi
3:35 PM39 °FOvercast.5 mph93%30.10 "Hg4 mi
3:15 PM39 °FOvercast.5 mph93%30.10 "Hg5 mi
2:55 PM39 °FMore clouds than sun.3 mph93%30.10 "Hg7 mi
2:35 PM39 °FOvercast.3 mph93%30.10 "Hg4 mi
2:15 PM39 °FOvercast.No wind93%30.11 "Hg5 mi
1:55 PM39 °FOvercast.No wind93%30.11 "Hg5 mi
1:35 PM39 °FOvercast.No wind93%30.12 "Hg4 mi
Weather by CustomWeather, © 2014

See weather overviewHow to use our weather pages